FENGYUN 1C DEB, 35088

Orbit data source: Space-Track

FENGYUN 1C DEB, 35088 is space debris in LEO originally from a launch on Mon, 10 May 1999 UTC launched from the Taiyaun Space Center, China (TSC). Fengyun 1C debris stems from the Chinese weather satellite Fengyun-1C, which was intentionally destroyed by a Chinese anti-satellite missile in 2007. This event dramatically increased the amount of space debris, with thousands of trackable fragments posing hazards to satellites and human spaceflight. The Fengyun 1C debris cloud has become a focal point in discussions about space sustainability and the need for international regulations to prevent the creation of new debris.

Loading next visibility...
Identifier
35088, 1999-025DJQ
Orbit
LEO
Country
Flag of CNCN / PRC
Related business
Manufacturer
Unknown
Mission
Spacecraft
Bus & Motor
Unknown
Mass
Unknown
Launch date (UTC)
1999-05-10 (27 years ago)
Launch vehicle
Unknown
Launch site
Taiyaun Space Center, China (TSC)
Object type
Payload
Rocket body
Debris
Shape & HBR
Unknown shape, 0.1 m
Radar Cross Section
Small (<0.1 m²)

Expand to show TLE details & history
Last TLE update: 1 week ago

TLE from 1 week ago
0 FENGYUN 1C DEB
1 35088U 99025DJQ 26113.05361659  .00011919  00000-0  43681-2 0  9992
2 35088  94.6190 230.4732 0261239 153.3478 208.1414 14.15631972606551
Epoch: 2026-04-23T01:17Z
TLE epoch observation values (Epoch: 2026-04-23T01:17:12.473Z)
Latitude
-0.00004°
Longitude
0.06502°
Altitude
1,010.549 km
Speed
7.261 km/s
True Right ascension
15h 21m 53s
True Declination
0° 00' 00"
Sunlit
Object was in full shadow at epoch
Visualization orbit readout
Latitude
Unknown
Longitude
Unknown
Altitude
Unknown
Speed
Unknown
Apparent Right ascension
Unknown
Apparent Declination
Unknown
Sunlit
N/A
Visualization observer readout
Local Sidereal Time
02:48:48
Azimuth
Unknown
Elevation
Unknown
Doppler factor
Unknown
Orbital elements
Apogee altitude
1,025.666 km
Perigee altitude
648.682 km
Semi-major axis
7,215.311 km
Eccentricity
0.02612
Inclination
94.619°
RAAN
230.4732°
Arg. of periapsis
153.3478°
True anomaly
206.76917°
Mean anomaly
208.1414°
Eccentric anomaly
207.45139°
Mean motion
3.54128 °/min
Orbital period
101.66 mins
BSTAR
0.0043681
Loading maneuver chart data...
Computing Atmospheric mass density...
Loading historical data...
Loading historical data...
Loading historical data...
Loading historical data...
Loading historical data...
Loading historical data...
Loading historical data...

Documentation

Showing up to 5 results
|